Terug naar catalogus

CZ-6A DEB

ActiefPO
NORAD 61355·DEBRIS·🇨🇳 China

Gelanceerd Aug 6, 2024 vanaf Taiyuan Satellite Launch Center

Loading…

Volgende Passages (komende 24 uur)

TLE

VersSource: Space-Track

Epoch: Sep 13, 2026, 17:33 UTC

1 61355U 24140VU  26256.73182362  .00001763  00000-0  39242-3 0  9994
2 61355  88.9783 258.3337 0084359 318.4678  41.0140 14.54350544107555

Volg CZ-6A DEB in realtime met AllMySat

Download on the App Store